COSMOS 1823 DEB

Satellite information

Favourite Embed

Satellite Type and Status

DEBRISIN ORBIT

Key statistics

Satellite COSMOS 1823 DEB at a glance.

Uptime

14019

Days in orbit

Revolutions

≈ 12.5

Per day

Orbit

LEO

Low Earth Orbit

Inclination

73.6

Latest

Satellite identification and parameters

Extended collection of information and parameters for COSMOS 1823 DEB.

Object identification

Identified? True

Debris? True

Object name: COSMOS 1823 DEB

International designator: 1987-020EU

Object number (NORAD): 39820

Object ID (CCSDS): 39820

Country: COMMONWEALTH OF INDEPENDENT STATES (CIS)

Current information (Y/N): Y

RCS size: SMALL

Orbital parameters

Period: 115.602 minutes

Inclination: 73.6327 deg

SMA: 7860.871 km

Apoapsis: 1499.882 km

Periapsis: 1465.59 km

RAAN: 85.3762 deg

Eccentricy: 0.0021812

Argument of periapsis: 222.6281 deg

Mean anomaly: 259.8396 deg

Mean motion: 12.45652125 rev/day

Mean motion (dot): 0.00000059 rev/day2

B* drag term: 0.0005353 1/REarth

Two-line elements (TLE)

Creation date: July 5, 2025, 5:45 p.m.

Reference frame: TEME

Reference center: EARTH

Epoch: July 5, 2025, 9:54 a.m. UTC

TLE line 0: 0 COSMOS 1823 DEB

TLE line 1: 1 39820U 87020EU 25186.41274485 .00000059 00000-0 53530-3 0 9999

TLE line 2: 2 39820 73.6327 85.3762 0021812 222.6281 259.8396 12.45652125504093

Live tracking on map

Real-time ground track for satellite COSMOS 1823 DEB.

In-orbit conjunctions

A list of the most updated potential collisions computed for object COSMOS 1823 DEB.

Target Orbit TCA Probability of collision Miss distance Type
NOAA 1 SSO 2025-05-21 03:30:35 0.0002322447 52.0 (m) PAYLOAD
COSMOS 1088 LEO 2025-02-18 20:17:10 0.0008748569 162.0 (m) PAYLOAD
COSMOS 2014 LEO 2024-11-19 00:18:20 0.0002522591 320.0 (m) PAYLOAD

Associated space launch

A satellite for the GEO-IK geodetic system

COSMOS 1823 DEB was lifted into orbit during the mission ‘Tsiklon-3 | Geo-IK 9’, on board a Tsiklon-3 space rocket.

The launch took place on Feb. 20, 1987, 4:43 a.m. from 32/2.

For more information about the launch, click the button.

Launch to space Tsiklon-3 | Geo-IK 9
Tsiklon-3 | Geo-IK 9

Agency: N/A

Status: Launch Successful

Launch date: Feb. 20, 1987, 4:43 a.m. UTC

Rocket: Tsiklon-3

Launch pad: 32/2

Location: Plesetsk Cosmodrome, Russian Federation

...

Latest news about this satellite

There are no fresh news available about this satellite. Check back as we update our databases every day.


Newsletter sign-up

Weekly statistics, charts and insights to help you stay on top of the space industry.